LiveATC.Net - Listen to live air traffic control over the Internet!


ICAO: KGAI  IATA: GAI   Airport: Montgomery County Airpark
City: Gaithersburg   State/Province: Maryland
Country: United States   Continent: North America
KGAI METAR Weather: KGAI 051956Z AUTO 00000KT 10SM OVC065 28/19 A3008 RMK AO2 SLP195 T02780189
KGAI Flight Activity (FlightAware)
KGAI Airport Info   (iFlightPlanner)
KGAI VFR Sectional Chart   (iFlightPlanner) 
KGAI IFR Low Chart   (iFlightPlanner) 

KGAI CTAF/UNICOM
Feed Status: UP   Listeners: 1
Listen in your browser - HTML5 player (in browser, HTML5)
Click here to listen with your own player (launches your MP3 player)
Archive Access: KGAI CTAF/UNICOM
FacilityFrequency
Gaithersburg CTAF123.075
Feed sponsored by:

NOTICE

Unauthorized use prohibited. See LiveATC.net Terms of Service


Airport/ARTCC Code
Frequency Search
(e.g., 124.400, 128.75)
Site-wide search
 


Browse Feeds
Top 50 Feeds
Coverage Map
Bad Weather Areas

LiveATC FAQ
Offer LiveATC feed
Contact LiveATC.net
Press Inquiries

LiveATC on iPhone
LiveATC on Android

Windows Phone
Windows 8/10

LiveATC Mobile
(Mobile browser)

ATC Audio Archives
Interesting Recordings

LiveATC Forums


Home Page
About LiveATC.net
Make a Donation
Terms of Use
Privacy Policy

Canadian Air Freqs

AIRMETs/SIGMETs

FAA Airport Status
Nat'l Airspace Status
Arrival Demand Charts


Server Software By:
Icecast.org
Liquidsoap